Theta_e
314 314 313 312 311 311 311 311 311 311 311 311 312 312 312 313 318 321 325 329 333 334 334 336 336 336 337 338 337 338 338 336
311 311 311 311 310 309 310 309 308 309 308 307 307 307 307 307 308 309 311 313 314 316 321 328 331 332 335 336 337 337 336 337
310 310 310 309 309 309 309 308 307 307 307 306 307 307 307 307 307 308 310 310 310 309 310 310 315 330 331 333 335 336 336 336
310 310 309 309 309 308 308 308 305 306 305 304 304 304 305 305 305 305 306 306 308 311 310 311 309 309 317 328 332 333 333 332
310 309 309 308 308 308 307 307 305 305 304 304 303 305 305 305 305 303 302 301 302 304 311 314 314 311 309 310 319 323 330 330
309 309 308 307 307 306 306 306 306 305 304 302 302 302 302 300 301 300 299 299 300 304 311 313 313 314 314 312 310 311 319 324
310 309 307 306 305 305 303 303 303 303 302 302 302 301 300 300 297 298 299 301 301 303 309 310 314 314 315 315 314 310 308 311
309 307 306 305 304 303 303 302 302 302 303 303 302 302 301 300 299 300 301 301 301 302 304 308 309 311 312 313 314 314 313 310
307 306 305 304 304 303 302 302 302 302 303 302 302 301 298 298 299 300 300 301 301 304 306 307 308 309 309 308 312 312 310 311
306 305 305 303 302 301 301 302 303 302 301 301 297 296 299 301 300 300 300 302 304 305 306 306 304 304 306 307 308 310 310 311
305 304 303 302 301 301 301 301 301 301 301 300 297 301 302 302 301 303 304 306 305 305 304 303 304 305 301 300 303 304 307 310
304 303 302 300 300 300 300 300 300 300 299 297 299 302 303 303 304 304 303 302 302 301 300 300 300 301 302 301 301 301 302 304
303 301 300 300 300 300 300 300 300 299 296 297 299 302 301 302 301 301 300 300 299 299 299 299 299 299 300 301 301 302 302 303
301 300 300 300 300 300 300 300 299 297 296 298 299 300 301 302 301 301 300 300 300 299 299 298 298 298 299 299 300 301 301 302
300 301 301 300 301 300 300 300 299 297 296 298 298 298 299 299 300 300 299 299 299 298 298 297 297 298 298 299 299 299 299 299
301 301 301 301 300 300 300 299 297 297 296 297 297 298 299 299 299 299 299 299 298 297 297 297 297 297 296 296 296 296 297 297
301 301 301 301 300 300 299 297 297 295 295 296 297 296 297 297 297 297 295 296 297 296 295 296 296 296 297 296 295 296 296 296
302 301 301 300 300 299 298 296 296 295 294 293 293 294 295 296 296 297 296 295 295 295 294 294 294 295 294 295 296 296 296 295
302 301 301 300 299 299 298 297 296 295 295 294 294 293 293 295 295 294 293 294 294 293 293 292 293 293 293 294 296 295 295 295
Wind_Speed
15 8 6 7 9 11 11 14 15 15 14 14 12 14 13 13 14 16 19 25 30 32 32 33 34 35 38 44 46 48 53 46
12 14 13 9 10 9 10 14 15 17 22 23 23 24 23 21 20 20 22 22 23 25 28 29 31 35 34 39 44 49 54 50
18 14 11 12 11 11 12 14 16 17 21 23 25 27 28 27 26 24 24 25 27 27 28 31 32 29 31 36 43 50 55 53
17 14 13 9 10 10 12 14 17 18 21 24 28 30 33 36 37 36 35 31 28 26 30 30 29 29 31 29 31 51 44 47
14 12 11 6 6 7 13 18 20 20 23 27 31 31 34 36 38 40 41 41 38 31 27 31 33 32 32 31 32 28 33 43
13 9 6 4 8 12 16 23 22 24 31 36 35 37 36 35 38 42 42 40 35 27 22 29 34 29 29 28 26 30 27 24
8 5 6 6 9 14 14 13 17 23 28 29 31 32 36 42 44 41 42 38 38 29 25 28 24 26 27 24 23 25 28 34
6 5 5 8 12 15 18 22 26 25 22 21 31 35 41 47 46 40 41 41 38 39 30 30 30 29 20 24 23 21 20 26
7 6 8 11 16 17 18 20 19 16 17 27 31 39 46 48 47 42 43 41 39 33 26 27 29 24 26 34 24 21 20 26
3 5 9 11 12 16 15 14 14 16 22 29 39 45 44 41 35 32 34 25 21 21 23 20 26 30 26 31 30 28 24 23
1 3 7 10 12 10 12 14 20 24 29 36 40 33 23 23 17 17 15 13 15 20 22 24 27 25 20 30 31 29 26 21
4 7 7 8 7 9 15 19 24 28 32 33 32 18 18 16 18 13 14 15 15 16 16 19 20 21 22 23 22 21 22 22
6 3 3 5 8 15 18 21 26 28 29 25 25 11 14 14 14 16 15 15 15 15 17 19 20 18 17 18 17 16 16 15
2 2 4 7 13 15 18 21 25 28 28 22 23 16 17 16 14 16 20 22 21 20 20 21 21 20 18 16 16 16 16 16
2 3 7 12 9 12 16 21 26 28 28 20 21 17 15 14 14 14 15 16 20 23 22 20 19 17 16 16 18 22 21 18
2 4 7 5 13 18 22 26 25 24 27 22 18 17 14 15 17 18 18 20 22 23 21 21 18 15 15 20 20 19 18 17
4 6 8 12 17 22 23 23 21 24 24 19 16 17 19 19 20 21 20 19 20 21 21 21 21 20 17 17 19 20 19 19
8 9 13 17 20 21 21 19 19 21 19 17 17 20 20 19 18 17 17 18 18 20 19 20 21 21 21 20 19 20 20 19
10 15 18 20 19 21 20 19 19 18 17 17 20 19 18 16 15 15 17 18 19 19 20 21 22 23 22 20 20 20 20 18
Wind_Direction
133 114 73 53 51 43 22 15 19 2 9 356 355 352 350 341 325 316 299 289 292 292 289 281 274 269 266 261 253 247 246 251
103 87 87 60 32 33 15 10 21 0 358 355 350 344 339 333 330 322 314 314 310 303 298 292 281 279 273 268 266 253 242 242
111 104 71 43 38 14 358 9 10 360 348 344 337 331 327 325 320 312 310 308 305 304 303 304 303 292 278 270 267 244 240 238
106 83 65 49 14 6 7 1 356 352 343 335 330 325 322 322 321 318 317 311 304 299 301 303 299 298 295 276 265 243 239 228
100 86 68 33 58 358 340 339 339 338 338 333 328 327 326 323 319 314 314 314 315 307 297 298 301 298 292 292 287 285 258 234
95 73 64 77 4 354 332 323 324 327 329 325 322 319 314 317 316 314 312 315 316 317 310 297 291 295 299 295 282 280 283 287
95 96 122 30 4 348 351 341 329 325 325 320 318 322 319 320 322 317 312 313 317 306 296 302 299 287 288 293 291 281 287 281
113 95 19 353 339 340 335 328 325 324 317 313 306 312 317 316 317 314 312 306 309 306 296 297 303 290 292 302 287 287 292 288
95 40 5 346 331 322 320 325 323 310 299 313 313 313 314 312 309 304 301 306 314 316 311 298 288 296 307 290 296 286 284 287
36 333 322 323 317 321 325 308 304 304 313 315 320 321 316 315 311 299 301 313 316 322 309 302 304 303 295 301 296 293 281 281
347 328 309 303 318 322 309 299 305 310 313 318 323 328 340 343 359 7 353 342 329 306 306 302 298 295 300 300 285 285 283 283
286 269 285 298 303 310 301 300 304 310 316 323 329 340 348 356 350 359 344 315 309 318 322 318 316 308 301 296 297 297 286 275
212 231 289 284 312 309 301 304 310 319 325 323 334 312 331 339 344 339 331 339 336 333 334 335 333 333 327 323 326 313 310 302
136 335 321 329 318 303 301 305 317 325 325 324 327 305 308 302 319 351 351 344 341 336 336 332 331 334 333 328 321 313 312 310
357 322 322 324 301 307 308 314 320 324 320 323 324 320 324 316 320 329 330 330 327 323 324 325 325 332 315 312 309 309 312 315
261 322 333 280 296 302 309 314 322 323 321 321 312 307 311 301 299 310 308 308 308 319 328 323 323 325 317 314 318 324 332 331
264 299 295 290 297 304 311 317 320 321 318 319 311 311 303 306 305 300 306 317 323 324 326 328 327 326 321 329 328 329 331 334
263 288 291 292 302 304 312 311 320 321 316 320 327 319 310 311 311 310 318 324 328 336 339 337 334 329 324 321 318 322 327 333
273 286 292 296 301 298 307 312 319 318 327 320 323 316 314 310 310 319 327 328 332 333 334 336 337 333 330 326 323 325 327 329